Simultaneous Nadir Overpasses (SNOs) Predictions

Prediction of SNOs between NOAA-15 and METOP-C Satellite Orbit:

Table of predicted SNOs for the next 14.0 days since TLE Epoch: 8/13/2022
Index Date (NOAA-15) Time (NOAA-15) Lat,Lon (NOAA-15) SZA (NOAA-15 ) Date (METOP-C) Time (METOP-C) Lat,Lon (METOP-C) SZA (METOP-C ) Distance(km) Time Diff (sec)
1 08/14/2022 03:25:05 -81.07, -13.13 111.48 08/14/2022 03:23:51 -81.07, -13.11 111.51 0.44 74
2 08/14/2022 04:15:39 81.08, 154.12 68.53 08/14/2022 04:14:33 81.06, 153.95 68.47 3.39 66
3 08/14/2022 05:06:07 -81.08, -38.50 111.47 08/14/2022 05:05:13 -81.07, -38.62 111.51 2.31 54
4 08/14/2022 05:56:41 81.08, 128.75 68.54 08/14/2022 05:55:54 81.07, 128.81 68.52 1.58 47
5 08/14/2022 06:47:09 -81.08, -63.87 111.45 08/14/2022 06:46:34 -81.08, -63.75 111.46 2.08 35
6 08/14/2022 07:37:42 81.07, 103.75 68.58 08/14/2022 07:37:15 81.08, 103.68 68.57 1.60 27
7 08/14/2022 08:28:10 -81.07, -88.86 111.42 08/14/2022 08:27:55 -81.08, -88.89 111.41 1.47 15
8 08/14/2022 09:18:44 81.08, 78.38 68.59 08/14/2022 09:18:36 81.09, 78.54 68.62 3.08 8
9 08/14/2022 10:09:12 -81.08,-114.23 111.40 08/14/2022 10:09:17 -81.08,-114.40 111.41 2.90 5
10 08/14/2022 10:59:46 81.08, 53.01 68.61 08/14/2022 10:59:58 81.08, 53.04 68.62 0.45 12
11 08/14/2022 11:50:13 -81.08,-139.59 111.39 08/14/2022 11:50:37 -81.08,-139.53 111.37 1.19 24
12 08/14/2022 12:40:47 81.09, 27.64 68.62 08/14/2022 12:41:19 81.07, 27.53 68.62 2.26 32
13 08/14/2022 13:31:15 -81.08,-164.96 111.37 08/14/2022 13:31:59 -81.08,-165.04 111.36 1.54 44
14 08/14/2022 14:21:49 81.09, 2.27 68.64 08/14/2022 14:22:40 81.08, 2.40 68.66 2.37 51
15 08/14/2022 15:12:17 -81.09, 169.67 111.36 08/14/2022 15:13:20 -81.09, 169.82 111.32 2.64 63



Historial Predications of SNOs between NOAA-15 and METOP-C
